GEFSSE_con_probscp_066.txt.gz
Probability
0 2 5 9 13 14 14 11 7 4 3 5 4 3 2 3 6 9 11 11 7 4 3 2 1 0 1 0 0 0 0 0 0 0 0 1 2 3 3 2 1 2 3
1 3 5 10 13 13 11 10 5 2 2 3 4 3 1 2 4 7 8 6 4 2 1 1 0 0 1 0 0 0 0 0 0 0 0 1 1 2 2 1 2 2 3
4 4 6 9 12 11 8 5 2 1 1 1 2 2 1 0 1 2 2 2 1 0 0 0 0 0 0 0 0 1 0 0 0 0 0 0 0 1 1 0 1 2 2
6 4 5 8 9 7 3 1 0 0 0 0 0 0 0 0 0 0 0 0 0 0 0 0 0 0 0 0 0 0 0 0 0 0 0 0 0 0 1 1 1 1 1
6 4 4 5 5 2 1 0 0 0 0 0 0 0 0 0 0 0 0 0 0 0 0 0 0 0 0 0 0 0 0 0 0 0 0 0 0 1 2 3 3 2 2
4 2 2 3 2 0 1 1 0 0 0 0 0 0 0 0 0 0 0 0 0 0 0 0 0 0 0 0 0 0 0 0 0 0 0 0 0 2 3 3 4 4 3
3 2 1 2 1 1 2 2 1 0 0 0 0 0 0 0 0 0 0 0 0 0 0 0 0 0 0 0 0 0 0 0 0 0 0 0 2 3 3 2 3 3 2
3 3 2 1 1 1 2 2 1 0 0 0 0 0 0 0 0 0 0 0 0 0 0 0 0 0 0 0 0 0 0 0 0 0 0 1 3 4 2 2 3 4 3
3 4 3 1 1 1 1 1 0 0 0 0 0 0 0 0 0 0 0 0 0 0 0 0 0 0 0 0 0 0 0 0 0 0 0 1 3 5 4 3 5 6 5
2 3 3 3 2 1 0 0 0 0 0 0 0 0 0 0 0 0 0 0 0 0 0 0 0 0 1 1 1 1 1 0 0 0 0 1 4 7 6 5 6 7 6
1 2 3 3 3 2 1 0 0 0 0 0 0 0 0 0 0 0 0 0 0 0 0 0 0 1 2 2 3 3 2 0 0 0 1 2 6 11 10 8 8 8 7
2 1 1 2 2 2 1 0 0 0 0 0 0 0 0 0 0 0 0 0 0 0 0 0 0 2 2 2 2 1 1 0 0 1 3 7 12 17 17 14 11 10 10
3 2 1 1 1 1 0 0 0 0 0 0 0 0 0 0 0 0 0 0 0 0 0 0 0 1 2 2 1 0 0 0 0 1 6 13 20 23 22 18 15 14 14
3 3 2 1 0 0 0 0 0 0 0 0 0 0 0 0 0 0 0 0 0 0 0 0 0 1 2 2 1 0 0 0 0 1 7 17 22 24 22 18 15 14 15
6 5 4 2 0 0 0 0 0 0 0 0 0 0 0 0 0 0 0 0 0 0 0 0 1 1 2 2 1 0 0 0 0 1 6 12 16 18 18 14 11 12 14
14 12 9 6 3 2 1 0 0 0 0 0 0 0 0 0 0 0 0 0 0 0 0 1 2 2 2 1 0 0 0 0 0 0 3 5 8 12 14 11 8 10 13
23 23 20 14 10 7 5 3 1 1 1 1 1 1 1 2 1 1 1 0 0 1 1 1 3 3 1 0 0 0 0 0 0 0 0 1 3 8 10 8 6 6 8
35 38 35 29 24 21 15 9 6 5 5 4 3 3 3 4 3 3 3 2 2 3 3 2 2 2 1 0 0 0 0 0 0 0 0 0 1 3 5 5 6 4 3
51 53 53 47 44 43 37 27 19 14 11 9 8 7 7 6 6 6 6 6 6 5 4 2 1 1 0 0 0 0 0 0 0 0 0 0 0 0 1 2 4 4 2
61 64 67 65 64 66 62 52 40 30 22 16 13 12 11 11 11 11 10 10 8 6 3 1 0 0 0 0 0 0 0 0 0 0 0 0 0 0 0 0 1 1 1
64 68 74 76 77 78 76 70 58 46 34 24 18 15 14 13 14 16 14 11 8 5 3 1 0 0 0 0 0 0 0 0 0 0 0 0 0 0 0 0 0 0 0
64 69 75 78 79 79 77 72 62 48 35 26 20 16 13 13 14 15 13 8 5 3 1 0 0 0 0 0 0 0 0 0 0 0 0 0 0 0 0 0 0 0 0
67 69 71 73 75 76 74 68 58 45 32 24 18 12 9 9 9 9 8 4 2 1 0 0 0 0 0 0 0 0 0 0 0 0 0 0 0 0 0 0 0 0 0
62 62 62 63 65 67 66 60 52 41 29 20 13 7 5 4 4 4 3 2 1 0 0 0 0 0 0 0 0 0 0 0 0 0 0 0 0 0 0 0 0 0 0
48 48 49 51 53 53 51 45 39 31 22 14 7 3 1 1 1 1 1 0 0 0 0 0 0 0 0 0 0 0 0 0 0 0 0 0 0 0 0 0 0 0 0
40 39 41 45 47 43 37 32 28 22 15 8 3 0 0 0 0 0 0 0 0 0 0 0 0 0 0 0 0 0 0 0 0 0 0 0 0 0 0 0 0 0 0

GEFSSE_con_probscp_072.txt.gz
Probability
1 2 3 3 4 6 10 12 12 14 14 12 11 7 4 2 1 0 1 3 3 3 3 2 1 0 0 0 1 2 2 1 0 0 0 0 0 0 0 0 0 0 0
3 4 4 4 5 6 7 8 8 8 8 7 7 5 3 1 1 1 2 3 3 3 3 2 1 0 0 0 0 1 1 0 0 0 0 0 0 0 0 0 0 0 0
5 5 4 4 4 4 3 3 2 2 2 2 2 2 2 1 1 2 2 3 3 3 3 1 0 0 0 0 0 0 0 0 0 0 0 0 0 0 0 0 0 0 1
6 5 3 2 3 2 1 1 0 0 0 0 0 0 0 0 1 1 1 2 3 3 2 1 0 0 0 0 0 0 0 0 0 0 0 0 0 0 0 0 0 1 2
8 6 4 3 2 1 0 0 0 0 0 0 0 0 0 0 0 0 0 1 2 2 1 0 0 0 0 0 0 0 0 0 0 0 0 0 0 0 0 0 0 1 2
9 7 4 3 1 0 0 0 0 0 0 0 0 0 0 0 0 0 0 0 1 1 0 0 0 0 0 0 0 0 0 0 0 0 0 0 0 0 0 0 0 1 1
10 7 4 2 1 0 1 1 1 0 0 0 0 0 0 0 0 0 0 0 0 0 0 0 0 0 0 0 0 0 0 0 0 0 0 0 0 0 1 0 0 0 0
9 7 3 1 0 0 2 3 3 1 0 0 0 0 0 0 0 0 0 0 0 0 0 0 0 0 0 0 0 0 0 0 0 0 0 0 0 0 1 1 1 1 1
8 6 3 1 0 0 1 2 3 1 0 0 0 0 0 0 0 0 0 0 0 0 0 0 0 0 0 0 0 0 0 0 0 0 0 0 0 0 1 3 4 3 3
8 6 3 1 0 0 1 2 3 2 0 0 0 0 0 0 0 0 0 0 0 0 0 0 0 0 0 0 0 0 0 0 0 0 0 0 0 0 2 4 5 5 4
10 6 3 1 0 0 1 2 3 1 0 0 0 0 0 0 0 0 0 0 0 0 0 0 0 0 0 0 0 0 0 0 0 0 0 0 1 2 4 6 6 5 4
11 7 3 0 0 0 1 2 2 1 0 0 0 0 0 0 0 0 0 0 0 0 0 0 0 0 0 0 0 0 0 0 0 0 0 2 4 5 7 8 6 4 3
8 6 3 1 0 0 1 3 3 1 0 0 0 0 0 0 0 0 0 0 0 0 0 0 0 0 0 0 0 0 0 0 0 0 1 5 8 9 9 8 6 4 2
5 4 3 2 1 1 3 5 4 1 0 0 0 0 0 0 0 0 0 0 0 0 0 0 0 0 0 0 0 0 0 0 0 0 3 7 10 11 11 10 8 4 2
2 2 2 2 1 1 5 8 6 3 1 0 0 0 0 0 0 0 0 0 0 0 0 0 0 0 0 0 0 0 0 0 0 1 3 7 10 12 14 14 10 7 5
1 0 1 1 1 2 6 8 6 3 1 0 0 0 0 0 0 0 0 0 0 0 0 0 0 0 0 0 0 0 0 0 0 0 2 5 9 11 13 14 12 9 9
1 0 0 0 1 3 5 6 5 2 1 0 0 0 0 0 0 0 0 0 0 0 0 0 0 0 0 0 0 0 0 0 0 0 0 2 5 8 11 12 11 9 8
6 3 2 2 2 3 5 5 5 2 0 0 0 0 0 0 0 0 0 0 0 0 0 1 1 1 1 0 0 0 0 0 0 0 0 0 2 5 8 9 8 6 5
16 11 7 6 6 5 6 8 7 5 3 1 0 0 0 0 0 0 1 1 1 1 1 2 2 2 1 0 0 0 0 0 0 0 0 0 0 1 3 4 5 3 3
28 24 18 15 15 14 14 14 12 10 7 3 1 0 0 0 0 1 2 3 3 3 3 2 2 1 0 0 0 0 0 0 0 0 0 0 0 0 0 1 1 1 1
39 39 34 30 30 32 31 27 22 16 10 5 2 0 0 0 1 2 4 4 4 4 3 1 1 0 0 0 0 0 0 0 0 0 0 0 0 0 0 0 0 0 0
45 48 48 47 49 51 47 38 29 20 12 7 4 2 1 2 3 4 5 4 4 4 2 0 0 0 0 0 0 0 0 0 0 0 0 0 0 0 0 0 0 0 0
46 49 53 54 58 58 51 41 33 25 16 10 7 5 4 4 5 5 5 4 3 3 2 0 0 0 0 0 0 0 0 0 0 0 0 0 0 0 0 0 0 0 0
46 46 47 49 50 50 46 39 34 27 19 12 8 6 5 5 4 3 3 2 1 1 1 0 0 0 0 0 0 0 0 0 0 0 0 0 0 0 0 0 0 0 0
42 40 38 37 37 36 34 32 27 22 15 10 6 4 3 3 2 1 1 0 0 0 0 0 0 0 0 0 0 0 0 0 0 0 0 0 0 0 0 0 0 0 0
35 35 33 30 28 27 25 23 18 14 11 7 4 2 1 1 1 0 0 0 0 0 0 0 0 0 0 0 0 0 0 0 0 0 0 0 0 0 0 0 0 0 0

GEFSSE_con_probscp_078.txt.gz
Probability
2 3 3 1 0 0 0 1 3 7 9 7 3 1 0 0 0 0 0 0 0 0 0 0 0 0 0 0 0 0 0 0 0 0 0 0 0 0 0 0 0 0 0
3 4 4 1 0 1 2 4 9 12 14 12 9 6 4 2 1 0 0 0 0 0 0 0 0 0 0 0 0 0 0 0 0 0 0 0 0 0 0 0 0 0 0
7 5 3 1 1 2 6 13 20 25 25 23 19 14 10 7 4 1 0 0 0 0 0 0 0 0 0 0 0 0 0 0 0 0 0 0 0 0 0 0 0 0 0
8 6 2 0 1 3 10 23 35 41 41 37 31 23 15 10 5 1 0 0 0 0 0 0 0 0 0 0 0 0 0 0 0 0 0 0 0 0 0 0 0 0 0
7 5 3 2 1 3 12 28 45 54 53 48 41 29 17 9 4 1 0 0 0 0 0 0 0 0 0 0 0 0 0 0 0 0 0 0 0 0 0 0 0 0 0
4 4 4 4 3 4 10 26 45 55 55 50 42 30 17 7 3 1 0 0 0 0 0 0 0 0 0 0 0 0 0 0 0 0 0 0 0 0 0 0 0 0 0
3 3 5 6 4 3 6 19 37 49 51 47 39 28 17 9 5 3 1 0 0 0 0 0 0 0 0 0 0 0 0 0 0 0 0 0 0 0 0 0 0 0 0
2 3 5 5 4 2 2 11 25 36 40 39 33 24 17 12 8 5 2 1 0 0 0 0 0 0 0 1 1 0 0 0 0 0 0 0 0 0 0 0 0 0 0
2 3 4 4 2 1 2 6 14 22 25 26 23 18 14 12 9 5 2 1 0 0 0 0 0 0 0 1 2 1 0 0 0 0 0 0 0 0 0 0 0 0 0
4 4 4 3 2 1 1 3 7 11 14 14 13 11 10 7 5 3 2 1 1 0 0 0 0 0 0 1 1 1 0 0 0 0 1 3 3 1 0 0 1 1 1
11 8 4 3 2 1 0 1 2 5 7 7 6 6 4 2 1 1 1 1 1 0 0 0 0 0 0 0 0 0 0 0 0 0 3 8 7 3 1 0 1 1 1
21 13 6 3 2 1 0 0 0 2 3 2 2 2 1 0 0 0 0 1 0 0 0 0 0 0 0 0 0 0 0 0 0 1 5 11 10 5 2 1 2 2 1
26 17 8 4 3 1 0 1 1 2 2 2 2 2 1 1 0 0 0 1 0 0 0 0 0 0 0 0 0 0 0 0 1 2 6 10 9 6 4 3 3 3 2
28 20 10 6 5 3 3 4 5 5 4 4 5 5 4 3 1 0 1 1 0 0 0 0 0 0 0 0 0 0 0 1 2 3 7 11 11 8 6 5 5 4 4
31 24 15 11 10 11 12 12 11 9 7 7 9 7 6 4 3 3 4 4 2 0 0 0 0 1 1 0 1 1 1 2 3 4 8 12 13 10 7 5 5 5 5
32 28 22 18 18 23 25 22 18 14 11 11 10 9 7 7 7 7 8 8 5 2 1 1 2 3 4 3 4 5 5 5 5 6 6 8 10 9 7 5 4 4 5
34 32 29 24 24 29 31 29 24 17 13 13 12 10 8 10 13 13 11 10 10 9 8 9 10 12 12 11 11 11 10 8 8 7 5 5 6 8 8 7 5 5 6
36 38 35 29 28 31 33 33 30 25 19 16 15 14 12 13 18 20 18 18 21 22 21 21 23 24 22 20 17 15 12 9 7 5 4 4 6 7 8 9 8 9 9
42 43 42 37 35 37 39 41 41 38 31 27 26 26 24 22 25 28 29 31 35 38 37 36 37 37 32 27 20 14 9 6 3 3 3 4 4 5 6 7 9 10 10
48 49 49 49 50 51 54 56 56 51 46 44 43 41 39 37 37 39 41 44 48 52 48 44 43 41 35 28 19 12 7 4 3 3 4 4 3 2 3 6 8 9 8
50 53 56 60 65 67 69 71 69 63 59 56 51 48 47 46 46 48 48 51 54 54 48 42 39 34 28 24 19 14 9 6 4 4 4 4 3 2 2 5 8 8 7
53 57 61 67 74 77 78 78 76 70 62 54 47 42 41 42 43 44 44 44 44 43 38 35 32 26 20 16 16 14 10 6 4 3 2 3 2 2 1 3 5 5 5
57 60 64 71 77 81 83 81 77 70 59 46 36 30 27 28 30 29 27 27 26 26 24 24 22 20 15 11 9 8 6 5 4 2 1 1 1 1 0 0 1 2 2
56 60 66 72 76 78 79 77 72 62 50 38 26 18 15 15 16 15 12 12 12 11 11 10 10 10 9 6 2 1 2 3 3 3 2 1 0 0 0 0 0 0 0
47 52 60 66 67 66 66 64 57 45 36 27 17 11 8 7 7 6 4 3 3 3 3 3 3 3 2 2 0 0 0 1 1 2 2 1 0 0 0 0 0 0 0
37 43 53 58 57 55 54 52 44 33 25 19 11 7 4 2 2 2 1 0 0 0 0 1 1 0 0 0 0 0 0 0 0 1 1 0 0 0 0 0 0 0 0

GEFSSE_con_probscp_084.txt.gz
Probability
61 60 58 45 23 9 3 1 0 0 0 0 0 0 0 0 0 0 0 0 0 0 0 0 0 0 0 0 0 0 0 0 0 0 0 0 1 2 2 2 1 0 0
73 69 65 52 28 10 3 1 0 0 0 0 0 0 0 0 0 0 0 0 0 0 0 0 0 0 0 0 0 0 0 0 0 0 0 0 0 1 1 1 1 1 0
80 73 69 61 37 13 2 0 0 0 0 0 0 0 0 0 0 0 0 0 0 0 0 0 0 0 0 0 0 0 0 0 0 0 0 0 0 0 1 2 3 2 1
72 66 68 66 46 20 6 3 2 1 1 0 0 0 0 0 0 0 0 0 0 0 0 0 0 0 0 0 0 0 0 0 0 0 0 0 0 0 1 2 2 2 1
59 59 64 66 53 30 14 8 6 4 2 1 1 1 1 0 0 0 0 0 0 0 0 0 0 0 0 0 0 0 0 0 0 0 0 0 0 1 1 1 0 0 0
48 50 56 62 56 39 23 14 9 6 5 4 4 3 2 1 0 0 0 0 0 0 0 0 0 0 0 0 0 0 0 0 0 0 0 1 1 2 2 1 0 0 0
40 41 46 55 54 43 30 21 15 11 8 8 8 7 5 2 0 0 0 0 0 0 0 0 0 0 0 0 0 0 0 0 0 0 1 3 4 4 3 1 1 1 0
39 35 34 40 43 38 30 22 18 15 12 13 12 10 7 3 1 0 0 0 0 0 0 0 0 0 0 0 0 0 0 0 0 0 1 5 8 9 6 3 3 2 1
38 29 21 21 24 24 22 18 15 15 16 15 14 10 7 4 1 0 0 0 0 0 0 0 0 0 0 0 0 0 0 0 0 0 2 7 12 13 9 6 4 2 1
36 25 12 9 11 11 12 12 13 14 15 14 10 7 5 3 1 0 0 0 0 0 0 0 0 0 0 0 0 0 0 0 0 0 4 12 18 18 14 8 5 2 1
37 26 11 6 6 6 7 10 11 10 9 7 5 3 3 1 0 0 1 2 1 0 0 0 0 0 0 0 0 0 0 0 0 2 10 21 27 24 19 13 9 6 4
40 28 14 9 7 5 5 8 7 4 2 1 1 1 1 1 1 1 4 6 4 1 0 0 0 0 0 0 0 0 0 0 1 5 17 31 35 30 24 19 14 10 8
39 28 18 14 11 8 7 7 4 3 2 2 1 1 1 2 2 2 5 7 5 2 1 1 1 0 0 0 0 0 1 0 1 6 19 34 40 37 31 24 18 13 11
41 31 26 27 24 22 19 11 6 6 6 6 7 6 4 2 2 4 7 8 5 4 4 4 2 1 1 1 0 1 2 3 4 7 18 33 42 42 36 29 22 17 14
49 43 44 48 47 49 44 27 17 17 16 16 17 14 8 5 5 8 13 15 12 11 12 11 8 8 8 5 3 4 7 10 12 13 20 33 43 45 41 34 27 21 18
58 58 63 69 71 74 66 48 33 31 28 28 30 25 16 15 17 20 24 25 23 21 23 24 23 21 18 13 11 13 17 18 20 21 24 30 38 45 46 40 31 24 20
71 72 76 79 83 85 77 61 46 41 40 44 46 40 31 32 37 39 38 37 34 33 36 38 37 34 28 23 22 23 25 25 25 25 26 26 30 39 45 41 33 26 21
85 85 83 83 87 89 83 69 55 50 54 62 64 59 51 51 55 56 53 49 47 48 49 47 44 42 39 34 30 29 30 30 29 28 26 25 25 28 34 34 31 25 20
92 91 86 85 89 90 85 74 64 63 69 75 76 71 66 64 66 65 63 61 61 63 61 53 49 50 48 41 32 28 29 31 31 29 26 24 21 19 20 22 22 18 15
94 92 88 87 89 87 82 77 75 76 78 78 76 72 67 65 67 67 64 64 66 69 67 60 55 52 47 39 27 23 24 26 26 26 23 20 16 11 9 9 10 8 7
89 89 86 85 86 84 80 80 84 82 78 74 69 63 59 57 59 60 59 61 63 65 64 59 54 46 38 32 25 18 16 17 17 17 16 13 9 5 3 3 3 2 2
82 80 78 77 80 81 80 83 87 82 73 65 58 49 43 42 43 45 47 50 53 53 51 47 41 34 27 23 20 14 9 8 8 7 7 5 3 2 1 1 1 0 0
68 68 67 69 73 75 77 82 83 77 66 55 44 33 26 25 25 26 29 32 34 35 33 30 25 21 16 12 9 6 3 2 2 2 2 1 1 1 0 0 0 0 0
50 52 56 61 64 65 68 72 72 66 55 43 30 20 15 13 13 14 15 17 17 17 17 15 13 10 7 4 2 1 1 1 1 1 0 0 0 0 0 0 0 0 0
33 37 42 47 51 52 54 57 56 50 41 29 18 12 8 7 6 7 7 7 7 6 6 5 4 3 1 0 0 0 0 1 1 1 0 0 0 0 0 0 0 0 0
25 28 32 36 40 42 44 47 45 38 30 20 13 8 4 2 2 2 2 2 2 1 1 0 0 0 0 0 0 0 0 0 0 1 0 0 0 0 0 0 0 0 0